Time,TemperatureF,DewpointF,PressureIn,WindDirection,WindDirectionDegrees,WindSpeedMPH,WindSpeedGustMPH,Humidity,HourlyPrecipIn,Conditions,Clouds,dailyrainin,SoftwareType,DateUTC
2013-05-30 00:14:00,62.9,33.0,30.23,East,86,0.0,-999.0,33,-99.99,,,0.00,weatherlink.com 1.10,2013-05-30 04:14:00,
2013-05-30 00:29:00,62.4,31.0,30.23,East,86,0.0,-999.0,31,-99.99,,,0.00,weatherlink.com 1.10,2013-05-30 04:29:00,
2013-05-30 00:44:00,62.2,23.0,30.23,East,86,0.0,-999.0,22,-99.99,,,0.00,weatherlink.com 1.10,2013-05-30 04:44:00,
2013-05-30 00:59:00,61.6,22.0,30.23,East,86,0.0,-999.0,22,-99.99,,,0.00,weatherlink.com 1.10,2013-05-30 04:59:00,
2013-05-30 01:14:00,61.4,12.0,30.22,East,86,0.0,-999.0,14,-99.99,,,0.00,weatherlink.com 1.10,2013-05-30 05:14:00,
2013-05-30 01:29:00,61.2,8.0,30.23,East,86,0.0,-999.0,12,-99.99,,,0.00,weatherlink.com 1.10,2013-05-30 05:29:00,
2013-05-30 01:44:00,61.0,6.0,30.23,East,86,0.0,-999.0,11,-99.99,,,0.00,weatherlink.com 1.10,2013-05-30 05:44:00,
2013-05-30 01:59:00,60.9,-4.0,30.22,East,86,0.0,-999.0,7,-99.99,,,0.00,weatherlink.com 1.10,2013-05-30 05:59:00,
2013-05-30 02:14:00,60.8,-16.0,30.21,East,86,0.0,-999.0,4,-99.99,,,0.00,weatherlink.com 1.10,2013-05-30 06:14:00,
2013-05-30 02:29:00,60.7,-11.0,30.21,East,86,0.0,-999.0,5,-99.99,,,0.00,weatherlink.com 1.10,2013-05-30 06:29:00,
2013-05-30 02:44:00,60.5,-16.0,30.22,East,86,0.0,-999.0,4,-99.99,,,0.00,weatherlink.com 1.10,2013-05-30 06:44:00,
2013-05-30 02:59:00,60.6,-41.0,30.21,East,86,0.0,-999.0,1,-99.99,,,0.00,weatherlink.com 1.10,2013-05-30 06:59:00,
2013-05-30 03:14:00,61.0,-99.9,30.21,East,86,0.0,-999.0,0,-99.99,,,0.00,weatherlink.com 1.10,2013-05-30 07:14:00,
2013-05-30 03:29:00,61.3,-99.9,30.21,East,86,0.0,-999.0,0,-99.99,,,0.00,weatherlink.com 1.10,2013-05-30 07:29:00,
2013-05-30 03:44:00,61.5,-99.9,30.22,NE,53,0.0,-999.0,0,-99.99,,,0.00,weatherlink.com 1.10,2013-05-30 07:44:00,
2013-05-30 03:59:00,61.8,-99.9,30.23,SE,142,0.0,-999.0,0,-99.99,,,0.00,weatherlink.com 1.10,2013-05-30 07:59:00,
2013-05-30 04:14:00,62.5,-99.9,30.24,SE,142,0.0,-999.0,0,-99.99,,,0.00,weatherlink.com 1.10,2013-05-30 08:14:00,
2013-05-30 04:29:00,63.1,-99.9,30.24,SE,142,1.0,-999.0,0,-99.99,,,0.00,weatherlink.com 1.10,2013-05-30 08:29:00,
2013-05-30 04:44:00,63.4,-99.9,30.24,SE,142,0.0,-999.0,0,-99.99,,,0.00,weatherlink.com 1.10,2013-05-30 08:44:00,
2013-05-30 04:59:00,63.4,-40.0,30.25,SE,142,0.0,-999.0,1,-99.99,,,0.00,weatherlink.com 1.10,2013-05-30 08:59:00,
2013-05-30 05:14:00,63.2,-27.0,30.25,SE,142,0.0,-999.0,2,-99.99,,,0.00,weatherlink.com 1.10,2013-05-30 09:14:00,
2013-05-30 05:29:00,63.0,-27.0,30.26,SE,142,0.0,-999.0,2,-99.99,,,0.00,weatherlink.com 1.10,2013-05-30 09:29:00,
2013-05-30 05:44:00,62.8,-40.0,30.26,SE,142,0.0,-999.0,1,-99.99,,,0.00,weatherlink.com 1.10,2013-05-30 09:44:00,
2013-05-30 05:59:00,62.7,-40.0,30.27,SE,142,0.0,-999.0,1,-99.99,,,0.00,weatherlink.com 1.10,2013-05-30 09:59:00,
2013-05-30 06:14:00,62.6,-40.0,30.27,SE,142,0.0,-999.0,1,-99.99,,,0.00,weatherlink.com 1.10,2013-05-30 10:14:00,
2013-05-30 06:29:00,62.3,-20.0,30.27,SE,142,0.0,-999.0,3,-99.99,,,0.00,weatherlink.com 1.10,2013-05-30 10:29:00,
2013-05-30 06:44:00,62.0,-20.0,30.27,SE,142,0.0,-999.0,3,-99.99,,,0.00,weatherlink.com 1.10,2013-05-30 10:44:00,
2013-05-30 06:59:00,61.8,-41.0,30.27,SE,142,0.0,-999.0,1,-99.99,,,0.00,weatherlink.com 1.10,2013-05-30 10:59:00,
2013-05-30 07:14:00,61.7,-99.9,30.28,SE,142,0.0,-999.0,0,-99.99,,,0.00,weatherlink.com 1.10,2013-05-30 11:14:00,
2013-05-30 07:29:00,61.9,-99.9,30.28,SE,142,0.0,-999.0,0,-99.99,,,0.00,weatherlink.com 1.10,2013-05-30 11:29:00,
2013-05-30 07:44:00,62.2,-99.9,30.28,South,190,0.0,-999.0,0,-99.99,,,0.00,weatherlink.com 1.10,2013-05-30 11:44:00,
2013-05-30 07:59:00,62.6,-99.9,30.29,ENE,70,0.0,-999.0,0,-99.99,,,0.00,weatherlink.com 1.10,2013-05-30 11:59:00,
2013-05-30 08:14:00,63.2,-99.9,30.29,South,188,0.0,-999.0,0,-99.99,,,0.00,weatherlink.com 1.10,2013-05-30 12:14:00,
2013-05-30 08:29:00,64.1,-99.9,30.29,South,188,0.0,-999.0,0,-99.99,,,0.00,weatherlink.com 1.10,2013-05-30 12:29:00,
2013-05-30 08:44:00,65.2,-26.0,30.29,South,188,0.0,-999.0,2,-99.99,,,0.00,weatherlink.com 1.10,2013-05-30 12:44:00,
2013-05-30 08:59:00,66.2,15.0,30.30,NW,317,0.0,-999.0,14,-99.99,,,0.00,weatherlink.com 1.10,2013-05-30 12:59:00,
2013-05-30 09:14:00,66.8,37.0,30.30,NW,307,0.0,-999.0,34,-99.99,,,0.00,weatherlink.com 1.10,2013-05-30 13:14:00,
2013-05-30 09:29:00,67.8,41.0,30.29,SSW,198,0.0,-999.0,38,-99.99,,,0.00,weatherlink.com 1.10,2013-05-30 13:29:00,
2013-05-30 09:44:00,68.6,51.0,30.30,North,350,0.0,-999.0,54,-99.99,,,0.00,weatherlink.com 1.10,2013-05-30 13:44:00,
2013-05-30 09:59:00,68.7,52.0,30.30,WNW,297,0.0,-999.0,56,-99.99,,,0.00,weatherlink.com 1.10,2013-05-30 13:59:00,
2013-05-30 10:14:00,69.0,53.0,30.29,WNW,302,0.0,-999.0,57,-99.99,,,0.00,weatherlink.com 1.10,2013-05-30 14:14:00,
2013-05-30 10:29:00,69.4,56.0,30.29,WNW,302,0.0,-999.0,63,-99.99,,,0.00,weatherlink.com 1.10,2013-05-30 14:29:00,
2013-05-30 10:44:00,70.7,57.0,30.28,WSW,256,0.0,-999.0,63,-99.99,,,0.00,weatherlink.com 1.10,2013-05-30 14:44:00,
2013-05-30 10:59:00,72.2,62.0,30.28,North,360,0.0,-999.0,70,-99.99,,,0.00,weatherlink.com 1.10,2013-05-30 14:59:00,
2013-05-30 11:14:00,72.3,62.0,30.27,East,90,3.0,-999.0,70,-99.99,,,0.00,weatherlink.com 1.10,2013-05-30 15:14:00,
2013-05-30 11:29:00,74.0,64.0,30.27,SE,135,1.0,-999.0,72,-99.99,,,0.00,weatherlink.com 1.10,2013-05-30 15:29:00,
2013-05-30 11:44:00,77.1,66.0,30.27,East,89,0.0,-999.0,69,-99.99,,,0.00,weatherlink.com 1.10,2013-05-30 15:44:00,
2013-05-30 11:59:00,79.1,66.0,30.26,ENE,64,0.0,-999.0,65,-99.99,,,0.00,weatherlink.com 1.10,2013-05-30 15:59:00,
2013-05-30 12:14:00,79.5,66.0,30.26,ENE,69,0.0,-999.0,63,-99.99,,,0.00,weatherlink.com 1.10,2013-05-30 16:14:00,
2013-05-30 12:29:00,80.3,66.0,30.26,SSE,162,0.0,-999.0,62,-99.99,,,0.00,weatherlink.com 1.10,2013-05-30 16:29:00,
2013-05-30 12:44:00,80.9,66.0,30.25,ENE,74,2.0,-999.0,61,-99.99,,,0.00,weatherlink.com 1.10,2013-05-30 16:44:00,
2013-05-30 12:59:00,81.4,65.0,30.25,ESE,103,0.0,-999.0,57,-99.99,,,0.00,weatherlink.com 1.10,2013-05-30 16:59:00,
2013-05-30 13:14:00,80.8,66.0,30.25,East,90,1.0,-999.0,62,-99.99,,,0.00,weatherlink.com 1.10,2013-05-30 17:14:00,
2013-05-30 13:29:00,80.5,65.0,30.23,East,99,0.0,-999.0,59,-99.99,,,0.00,weatherlink.com 1.10,2013-05-30 17:29:00,
2013-05-30 13:44:00,79.9,64.0,30.23,East,83,0.0,-999.0,59,-99.99,,,0.00,weatherlink.com 1.10,2013-05-30 17:44:00,
2013-05-30 13:59:00,79.8,64.0,30.23,North,350,0.0,-999.0,59,-99.99,,,0.00,weatherlink.com 1.10,2013-05-30 17:59:00,
2013-05-30 14:14:00,80.9,64.0,30.22,ESE,118,0.0,-999.0,57,-99.99,,,0.00,weatherlink.com 1.10,2013-05-30 18:14:00,
2013-05-30 14:29:00,79.8,65.0,30.22,East,84,0.0,-999.0,61,-99.99,,,0.00,weatherlink.com 1.10,2013-05-30 18:29:00,
2013-05-30 14:44:00,78.8,64.0,30.21,ESE,116,0.0,-999.0,60,-99.99,,,0.00,weatherlink.com 1.10,2013-05-30 18:44:00,
2013-05-30 14:59:00,79.0,66.0,30.21,SE,128,0.0,-999.0,64,-99.99,,,0.00,weatherlink.com 1.10,2013-05-30 18:59:00,
2013-05-30 15:14:00,79.4,64.0,30.21,SE,134,0.0,-999.0,59,-99.99,,,0.00,weatherlink.com 1.10,2013-05-30 19:14:00,
2013-05-30 15:29:00,78.0,64.0,30.20,East,93,0.0,-999.0,63,-99.99,,,0.00,weatherlink.com 1.10,2013-05-30 19:29:00,
2013-05-30 15:44:00,78.4,66.0,30.20,East,84,0.0,-999.0,65,-99.99,,,0.00,weatherlink.com 1.10,2013-05-30 19:44:00,
2013-05-30 15:59:00,79.1,64.0,30.20,ENE,66,0.0,-999.0,61,-99.99,,,0.00,weatherlink.com 1.10,2013-05-30 19:59:00,
2013-05-30 16:14:00,78.4,64.0,30.20,ENE,78,0.0,-999.0,62,-99.99,,,0.00,weatherlink.com 1.10,2013-05-30 20:14:00,
2013-05-30 16:29:00,77.5,64.0,30.19,SSE,158,0.0,-999.0,64,-99.99,,,0.00,weatherlink.com 1.10,2013-05-30 20:29:00,
2013-05-30 16:44:00,76.9,63.0,30.19,ENE,67,0.0,-999.0,62,-99.99,,,0.00,weatherlink.com 1.10,2013-05-30 20:44:00,
2013-05-30 16:59:00,76.1,64.0,30.19,ENE,61,0.0,-999.0,66,-99.99,,,0.00,weatherlink.com 1.10,2013-05-30 20:59:00,
2013-05-30 17:14:00,75.9,64.0,30.19,ENE,67,0.0,-999.0,67,-99.99,,,0.00,weatherlink.com 1.10,2013-05-30 21:14:00,
2013-05-30 17:29:00,75.7,62.0,30.19,South,173,0.0,-999.0,63,-99.99,,,0.00,weatherlink.com 1.10,2013-05-30 21:29:00,
2013-05-30 17:44:00,75.8,64.0,30.18,ENE,61,0.0,-999.0,67,-99.99,,,0.00,weatherlink.com 1.10,2013-05-30 21:44:00,
2013-05-30 17:59:00,75.7,64.0,30.18,ENE,77,0.0,-999.0,66,-99.99,,,0.00,weatherlink.com 1.10,2013-05-30 21:59:00,
2013-05-30 18:14:00,75.5,64.0,30.18,NNE,24,0.0,-999.0,68,-99.99,,,0.00,weatherlink.com 1.10,2013-05-30 22:14:00,
2013-05-30 18:29:00,74.9,63.0,30.18,NNE,17,0.0,-999.0,66,-99.99,,,0.00,weatherlink.com 1.10,2013-05-30 22:29:00,
2013-05-30 18:44:00,74.4,63.0,30.18,East,84,0.0,-999.0,67,-99.99,,,0.00,weatherlink.com 1.10,2013-05-30 22:44:00,
2013-05-30 18:59:00,73.7,62.0,30.18,ENE,67,1.0,-999.0,68,-99.99,,,0.00,weatherlink.com 1.10,2013-05-30 22:59:00,
2013-05-30 19:14:00,72.9,63.0,30.19,ENE,67,0.0,-999.0,70,-99.99,,,0.00,weatherlink.com 1.10,2013-05-30 23:14:00,
2013-05-30 19:29:00,72.4,63.0,30.19,ENE,67,0.0,-999.0,71,-99.99,,,0.00,weatherlink.com 1.10,2013-05-30 23:29:00,
2013-05-30 19:44:00,71.9,62.0,30.19,ENE,67,0.0,-999.0,71,-99.99,,,0.00,weatherlink.com 1.10,2013-05-30 23:44:00,
2013-05-30 19:59:00,71.3,62.0,30.19,ENE,67,0.0,-999.0,72,-99.99,,,0.00,weatherlink.com 1.10,2013-05-30 23:59:00,
2013-05-30 20:14:00,70.6,61.0,30.19,ENE,67,0.0,-999.0,71,-99.99,,,0.00,weatherlink.com 1.10,2013-05-31 00:14:00,
2013-05-30 20:29:00,69.7,59.0,30.19,ENE,67,0.0,-999.0,69,-99.99,,,0.00,weatherlink.com 1.10,2013-05-31 00:29:00,
2013-05-30 20:44:00,68.9,57.0,30.19,ENE,67,0.0,-999.0,66,-99.99,,,0.00,weatherlink.com 1.10,2013-05-31 00:44:00,
2013-05-30 20:59:00,68.1,55.0,30.20,ENE,67,0.0,-999.0,64,-99.99,,,0.00,weatherlink.com 1.10,2013-05-31 00:59:00,
2013-05-30 21:14:00,67.6,55.0,30.20,ENE,67,0.0,-999.0,64,-99.99,,,0.00,weatherlink.com 1.10,2013-05-31 01:14:00,
2013-05-30 21:29:00,67.2,53.0,30.20,ENE,67,0.0,-999.0,61,-99.99,,,0.00,weatherlink.com 1.10,2013-05-31 01:29:00,
2013-05-30 21:44:00,66.9,53.0,30.20,ENE,67,0.0,-999.0,62,-99.99,,,0.00,weatherlink.com 1.10,2013-05-31 01:44:00,
2013-05-30 21:59:00,66.3,52.0,30.21,ENE,67,0.0,-999.0,60,-99.99,,,0.00,weatherlink.com 1.10,2013-05-31 01:59:00,
2013-05-30 22:14:00,65.8,51.0,30.21,ENE,67,0.0,-999.0,59,-99.99,,,0.00,weatherlink.com 1.10,2013-05-31 02:14:00,
2013-05-30 22:29:00,65.5,50.0,30.22,ENE,67,0.0,-999.0,57,-99.99,,,0.00,weatherlink.com 1.10,2013-05-31 02:29:00,
2013-05-30 22:44:00,65.2,48.0,30.22,ENE,67,0.0,-999.0,55,-99.99,,,0.00,weatherlink.com 1.10,2013-05-31 02:44:00,
2013-05-30 22:59:00,65.1,48.0,30.22,ENE,67,0.0,-999.0,55,-99.99,,,0.00,weatherlink.com 1.10,2013-05-31 02:59:00,
2013-05-30 23:14:00,65.0,44.0,30.22,ENE,67,0.0,-999.0,47,-99.99,,,0.00,weatherlink.com 1.10,2013-05-31 03:14:00,
2013-05-30 23:29:00,64.5,44.0,30.22,ENE,67,0.0,-999.0,48,-99.99,,,0.00,weatherlink.com 1.10,2013-05-31 03:29:00,
2013-05-30 23:44:00,64.1,39.0,30.23,ENE,67,0.0,-999.0,40,-99.99,,,0.00,weatherlink.com 1.10,2013-05-31 03:44:00,
2013-05-30 23:59:00,63.7,33.0,30.23,ENE,67,0.0,-999.0,32,-99.99,,,0.00,weatherlink.com 1.10,2013-05-31 03:59:00,